When you browse on this site, cookies collect data to enhance your experience and personalize the content and advertising you see.
Visit our Privacy Policy to learn more. By continuing to use the site, you agree to this use of cookies and data.

Hourly Weather Saskatoon

Today, 14 July, Tuesday

Time Temperature Precipitation Wind Pressure Humidity
00:00 +12°C° 0 mm 5 mps 709 mmHg 85%
01:00 +12°C° 0 mm 5 mps 709 mmHg 85%
02:00 +12°C° 0 mm 5 mps 709 mmHg 85%
03:00 +10°C° 0 mm 6 mps 709 mmHg 85%
04:00 +10°C° 0 mm 6 mps 709 mmHg 85%
05:00 +10°C° 0 mm 6 mps 709 mmHg 85%
06:00 +12°C° 0 mm 7 mps 709 mmHg 80%
07:00 +13°C° 0 mm 8 mps 709 mmHg 75%
08:00 +15°C° 0 mm 9 mps 710 mmHg 70%
09:00 +16°C° 0.2 mm 9 mps 710 mmHg 67%
10:00 +17°C° 0.2 mm 9 mps 709 mmHg 64%
11:00 +18°C° 0.2 mm 10 mps 709 mmHg 61%
12:00 +17°C° 0.4 mm 9 mps 709 mmHg 65%
13:00 +16°C° 0.4 mm 9 mps 709 mmHg 69%
14:00 +16°C° 0.4 mm 9 mps 709 mmHg 73%
15:00 +15°C° 0.4 mm 9 mps 709 mmHg 77%
16:00 +13°C° 0.4 mm 9 mps 709 mmHg 80%
17:00 +12°C° 0.4 mm 9 mps 709 mmHg 83%
18:00 +12°C° 0.1 mm 8 mps 709 mmHg 83%
19:00 +12°C° 0.1 mm 8 mps 709 mmHg 83%
20:00 +11°C° 0.1 mm 7 mps 709 mmHg 83%
21:00 +11°C° 0 mm 7 mps 709 mmHg 84%
22:00 +11°C° 0 mm 6 mps 709 mmHg 85%
23:00 +11°C° 0 mm 6 mps 709 mmHg 85%

Tomorrow, 15 July, Wednesday

Time Temperature Precipitation Wind Pressure Humidity
00:00 +11°C° 0 mm 6 mps 709 mmHg 85%
01:00 +11°C° 0 mm 6 mps 709 mmHg 85%
02:00 +11°C° 0 mm 6 mps 709 mmHg 85%
03:00 +11°C° 0 mm 6 mps 710 mmHg 86%
04:00 +11°C° 0 mm 6 mps 710 mmHg 86%
05:00 +11°C° 0 mm 6 mps 710 mmHg 87%
06:00 +12°C° 0 mm 7 mps 710 mmHg 80%
07:00 +15°C° 0 mm 8 mps 710 mmHg 74%
08:00 +16°C° 0 mm 8 mps 710 mmHg 67%
09:00 +17°C° 0 mm 8 mps 710 mmHg 67%
10:00 +18°C° 0 mm 8 mps 711 mmHg 66%
11:00 +20°C° 0 mm 7 mps 711 mmHg 65%
12:00 +20°C° 0.2 mm 7 mps 711 mmHg 64%
13:00 +21°C° 0.2 mm 7 mps 711 mmHg 63%
14:00 +22°C° 0.2 mm 7 mps 712 mmHg 62%
15:00 +21°C° 0.2 mm 7 mps 712 mmHg 62%
16:00 +21°C° 0.2 mm 7 mps 712 mmHg 63%
17:00 +21°C° 0.2 mm 7 mps 712 mmHg 63%
18:00 +20°C° 0 mm 6 mps 712 mmHg 69%
19:00 +18°C° 0 mm 4 mps 712 mmHg 75%
20:00 +17°C° 0 mm 3 mps 712 mmHg 81%
21:00 +16°C° 0 mm 3 mps 712 mmHg 84%
22:00 +14°C° 0 mm 3 mps 712 mmHg 88%
23:00 +13°C° 0 mm 3 mps 713 mmHg 91%

Day after tomorrow, 16 July, Thursday

Time Temperature Precipitation Wind Pressure Humidity
00:00 +13°C° 0 mm 3 mps 713 mmHg 92%
01:00 +14°C° 0 mm 2 mps 713 mmHg 92%
02:00 +13°C° 0 mm 2 mps 713 mmHg 93%
03:00 +13°C° 0 mm 2 mps 713 mmHg 93%
04:00 +13°C° 0 mm 2 mps 713 mmHg 93%
05:00 +13°C° 0 mm 2 mps 713 mmHg 94%
06:00 +15°C° 0 mm 2 mps 713 mmHg 86%
07:00 +17°C° 0 mm 2 mps 713 mmHg 79%
08:00 +19°C° 0 mm 2 mps 714 mmHg 71%
09:00 +21°C° 0 mm 2 mps 714 mmHg 64%
10:00 +23°C° 0 mm 2 mps 714 mmHg 58%
11:00 +25°C° 0 mm 2 mps 713 mmHg 51%
12:00 +26°C° 0 mm 2 mps 713 mmHg 47%
13:00 +26°C° 0 mm 2 mps 713 mmHg 43%
14:00 +27°C° 0 mm 1 mps 713 mmHg 40%
15:00 +27°C° 0 mm 1 mps 712 mmHg 41%
16:00 +27°C° 0 mm 1 mps 712 mmHg 42%
17:00 +27°C° 0 mm 1 mps 712 mmHg 43%
18:00 +25°C° 0 mm 2 mps 711 mmHg 52%
19:00 +22°C° 0 mm 3 mps 711 mmHg 60%
20:00 +20°C° 0 mm 5 mps 710 mmHg 69%
21:00 +20°C° 0 mm 5 mps 710 mmHg 67%
22:00 +20°C° 0 mm 5 mps 709 mmHg 65%
23:00 +21°C° 0 mm 6 mps 709 mmHg 63%

17 July, Friday

Time Temperature Precipitation Wind Pressure Humidity
00:00 +20°C° 0 mm 5 mps 708 mmHg 66%
01:00 +19°C° 0 mm 5 mps 708 mmHg 70%
02:00 +18°C° 0 mm 4 mps 707 mmHg 73%
03:00 +18°C° 0 mm 4 mps 707 mmHg 75%
04:00 +17°C° 0 mm 3 mps 706 mmHg 76%
05:00 +17°C° 0 mm 3 mps 706 mmHg 78%
06:00 +19°C° 0.1 mm 3 mps 706 mmHg 72%
07:00 +21°C° 0.1 mm 4 mps 706 mmHg 67%
08:00 +23°C° 0.1 mm 4 mps 706 mmHg 61%
09:00 +23°C° 0 mm 5 mps 706 mmHg 62%
10:00 +24°C° 0 mm 6 mps 706 mmHg 62%
11:00 +26°C° 0 mm 8 mps 706 mmHg 63%
12:00 +24°C° 0 mm 8 mps 706 mmHg 63%
13:00 +23°C° 0 mm 8 mps 706 mmHg 63%
14:00 +23°C° 0 mm 8 mps 706 mmHg 63%
15:00 +23°C° 0 mm 8 mps 707 mmHg 62%
16:00 +23°C° 0 mm 8 mps 707 mmHg 60%
17:00 +23°C° 0 mm 8 mps 707 mmHg 59%
18:00 +21°C° 0 mm 7 mps 707 mmHg 64%
19:00 +20°C° 0 mm 6 mps 707 mmHg 69%
20:00 +17°C° 0 mm 5 mps 707 mmHg 74%
21:00 +17°C° 0 mm 5 mps 708 mmHg 77%
22:00 +16°C° 0 mm 5 mps 708 mmHg 81%
23:00 +15°C° 0 mm 5 mps 708 mmHg 84%

18 July, Saturday

Time Temperature Precipitation Wind Pressure Humidity
00:00 +15°C° 0 mm 5 mps 708 mmHg 86%
01:00 +15°C° 0 mm 5 mps 708 mmHg 87%
02:00 +14°C° 0 mm 6 mps 708 mmHg 89%
03:00 +14°C° 0 mm 6 mps 708 mmHg 88%
04:00 +14°C° 0 mm 6 mps 708 mmHg 88%
05:00 +14°C° 0 mm 6 mps 709 mmHg 88%
06:00 +14°C° 0 mm 6 mps 709 mmHg 83%
07:00 +15°C° 0 mm 7 mps 709 mmHg 77%
08:00 +16°C° 0 mm 7 mps 710 mmHg 72%
09:00 +17°C° 0 mm 8 mps 710 mmHg 69%
10:00 +18°C° 0 mm 8 mps 711 mmHg 66%
11:00 +20°C° 0 mm 8 mps 711 mmHg 64%
12:00 +20°C° 0 mm 8 mps 711 mmHg 64%
13:00 +18°C° 0 mm 8 mps 711 mmHg 65%
14:00 +18°C° 0 mm 8 mps 711 mmHg 66%
15:00 +18°C° 0 mm 7 mps 712 mmHg 65%
16:00 +18°C° 0 mm 7 mps 712 mmHg 64%
17:00 +20°C° 0 mm 7 mps 712 mmHg 62%
18:00 +17°C° 0 mm 6 mps 712 mmHg 68%
19:00 +16°C° 0 mm 5 mps 712 mmHg 73%
20:00 +15°C° 0 mm 4 mps 712 mmHg 78%
21:00 +14°C° 0 mm 3 mps 712 mmHg 83%
22:00 +13°C° 0 mm 3 mps 713 mmHg 87%
23:00 +12°C° 0 mm 3 mps 713 mmHg 91%

19 July, Sunday

Time Temperature Precipitation Wind Pressure Humidity
00:00 +11°C° 0 mm 3 mps 713 mmHg 92%
01:00 +11°C° 0 mm 3 mps 713 mmHg 94%
02:00 +10°C° 0 mm 3 mps 713 mmHg 95%
03:00 +10°C° 0 mm 3 mps 713 mmHg 95%
04:00 +10°C° 0 mm 2 mps 714 mmHg 95%
05:00 +10°C° 0 mm 2 mps 714 mmHg 96%
06:00 +12°C° 0 mm 2 mps 714 mmHg 90%
07:00 +13°C° 0 mm 3 mps 715 mmHg 84%
08:00 +14°C° 0 mm 3 mps 715 mmHg 78%
09:00 +16°C° 0 mm 3 mps 715 mmHg 75%
10:00 +16°C° 0 mm 3 mps 716 mmHg 72%
11:00 +17°C° 0 mm 2 mps 716 mmHg 69%
12:00 +18°C° 0.1 mm 2 mps 716 mmHg 67%
13:00 +18°C° 0.1 mm 2 mps 716 mmHg 65%
14:00 +19°C° 0.1 mm 2 mps 716 mmHg 63%
15:00 +19°C° 0.3 mm 2 mps 716 mmHg 65%
16:00 +19°C° 0.3 mm 2 mps 716 mmHg 67%
17:00 +19°C° 0.3 mm 2 mps 716 mmHg 70%
18:00 +17°C° 0.8 mm 2 mps 716 mmHg 76%
19:00 +16°C° 0.8 mm 2 mps 716 mmHg 83%
20:00 +15°C° 0.8 mm 2 mps 716 mmHg 89%
21:00 +14°C° 1.1 mm 3 mps 716 mmHg 91%
22:00 +13°C° 1.1 mm 3 mps 716 mmHg 93%
23:00 +13°C° 1.1 mm 3 mps 716 mmHg 95%
Show more